Location: Peebles
(55.6412°N, 3.1714°W)
Time: 21:55:44
(UTC+01:00)

CENTAUR R/B - Pass Details

Date: 20 January 2022
Orbit: 716 x 1471 km, 63.4° (Epoch: 08 May)

Event Time Altitude Azimuth Distance (km) Brightness Sun altitude
Rises 20:01:13 0° 267° (W) 3,639 6.6 -30.1°
Reaches altitude 10° 20:03:42 10° 273° (W) 2,796 5.8 -30.4°
Maximum altitude 20:10:12 50° 348° (NNW) 1,440 3.4 -31.3°
Enters shadow 20:11:32 46° 19° (NNE) 1,559 3.4 -31.5°
